FW4603 Weather Reports


time (UTC)temp
C
wind
direction
speed
KPH
gust
KPH
rain 1hr
cm
rain 24hr
cm
rain mn
cm
humidity
%
barometer
mb
20260503174523 13 219 4.8 12.9 0.00 0.00 0.00 76 1013.6
20260503173111 13 98 0.0 17.7 0.00 0.00 0.00 76 1013.3
20260503171527 13 98 6.4 19.3 0.00 0.00 0.00 76 1013.2
20260503170104 13 110 0.0 8.0 0.00 0.00 0.00 76 1013.3
20260503130104 11 71 0.0 0.0 0.00 0.00 0.00 75 1011.5
20260503110107 11 78 0.0 8.0 0.00 0.00 0.00 76 1011.4
20260503081510 12 111 0.0 6.4 0.00 0.00 0.00 75 1012.0
20260503071613 12 103 0.0 0.0 0.00 0.00 0.00 75 1012.2
20260503054521 12 103 0.0 3.2 0.00 0.00 0.00 75 1012.7
20260503053108 12 160 0.0 3.2 0.00 0.00 0.00 76 1012.9
20260503051527 12 140 0.0 8.0 0.00 0.00 0.00 76 1012.8
20260503050104 12 48 0.0 6.4 0.00 0.00 0.00 76 1012.7
20260503044532 12 114 0.0 4.8 0.00 0.00 0.00 76 1012.6
20260503043106 12 89 0.0 8.0 0.00 0.00 0.00 76 1012.5
20260503041538 12 92 1.6 11.3 0.00 0.00 0.00 76 1012.5
20260503040012 12 69 0.0 16.1 0.00 0.00 0.00 76 1012.3
20260503034603 12 80 0.0 1.6 0.00 0.00 0.00 76 1012.1
20260503033021 12 94 3.2 11.3 0.00 0.00 0.00 76 1011.9
20260503031608 12 74 0.0 12.9 0.00 0.00 0.00 76 1011.8
20260503030046 12 69 0.0 9.7 0.00 0.00 0.00 76 1011.6
20260503024504 12 95 0.0 17.7 0.00 0.00 0.00 76 1011.5
20260503023049 13 239 1.6 16.1 0.00 0.00 0.00 76 1011.5
20260503021521 13 109 1.6 14.5 0.00 0.00 0.00 75 1011.4
20260503020040 13 94 0.0 16.1 0.00 0.00 0.00 75 1011.4
20260503014507 14 123 0.0 6.4 0.00 0.00 0.00 74 1011.4
20260503013044 15 176 1.6 14.5 0.00 0.00 0.00 72 1011.5
20260503011517 15 71 1.6 12.9 0.00 0.00 0.00 72 1011.4
20260503010004 15 206 1.6 17.7 0.00 0.00 0.00 71 1011.5
20260503004528 15 257 6.4 17.7 0.00 0.00 0.00 71 1011.5
20260503003008 16 161 4.8 20.9 0.00 0.00 0.00 70 1011.4
20260503001601 16 102 9.7 22.5 0.00 0.00 0.00 69 1011.5
20260503000033 17 325 3.2 22.5 0.00 0.00 0.00 68 1011.6
20260502234531 17 112 8.0 29.0 0.00 0.00 0.00 66 1011.8
20260502233106 17 104 1.6 16.1 0.00 0.00 0.00 68 1011.8
20260502231547 17 51 4.8 24.1 0.00 0.00 0.00 67 1012.1
20260502230036 18 78 4.8 20.9 0.00 0.00 0.00 65 1012.3
20260502224506 18 80 3.2 27.4 0.00 0.00 0.00 64 1012.4
20260502223042 18 63 1.6 9.7 0.00 0.00 0.00 65 1012.7
20260502221511 18 229 3.2 17.7 0.00 0.00 0.00 67 1013.0
20260502220037 17 109 6.4 20.9 0.00 0.00 0.00 67 1013.0
20260502214514 17 99 3.2 14.5 0.00 0.00 0.00 68 1013.1
20260502213042 17 115 8.0 27.4 0.00 0.00 0.00 68 1013.2
20260502211510 17 259 0.0 19.3 0.00 0.00 0.00 70 1013.2
20260502210030 17 159 6.4 16.1 0.00 0.00 0.00 70 1013.5
20260502204602 17 179 3.2 22.5 0.00 0.00 0.00 71 1013.7
20260502203032 16 119 4.8 17.7 0.00 0.00 0.00 73 1013.9
20260502201602 15 136 9.7 22.5 0.00 0.00 0.00 74 1014.0
20260502200028 15 115 6.4 24.1 0.00 0.00 0.00 75 1014.1
20260502194511 15 111 0.0 12.9 0.00 0.00 0.00 75 1014.1
20260502193107 15 313 0.0 11.3 0.00 0.00 0.00 76 1014.2
20260502191529 13 223 1.6 14.5 0.00 0.00 0.00 75 1014.2
20260502190012 13 254 3.2 9.7 0.00 0.00 0.00 75 1014.3
20260502184548 13 294 0.0 9.7 0.00 0.00 0.00 75 1014.2
20260502183026 14 90 4.8 17.7 0.00 0.00 0.00 75 1014.2
20260502181557 14 108 3.2 12.9 0.00 0.00 0.00 75 1014.2